Regional Weather Roundup
Issued by NWS

Home | Current Version | Previous Version | Text Only | Print | Product List | Glossary Off
Versions: 1 2 3 4 5 6 7 8 9 10 11 12 13 14 15 16 17 18 19 20 21 22 23 24 25 26 27 28 29 30 31 32 33 34 35 36 37 38 39 40 41 42 43 44 45 46 47 48 49 50

000
ASUS43 KFSD 221202
RWRSD

WEATHER ROUNDUP FOR SOUTH DAKOTA
NATIONAL WEATHER SERVICE SIOUX FALLS SD
700 AM CDT SUN APR 22 2018

NOTE: "FAIR" INDICATES FEW OR NO CLOUDS BELOW 12,000 FEET WITH NO
SIGNIFICANT WEATHER AND/OR OBSTRUCTIONS TO VISIBILITY.


SDZ001>005-009-010-012>017-221300-
NORTHWEST AND NORTH CENTRAL SOUTH DAKOTA

CITY           SKY/WX    TMP DP  RH WIND       PRES   REMARKS
BUFFALO          N/A     34  32  92 W7        30.06S WCI  28
FAITH            N/A     34  34 100 S16       30.14R WCI  24
MOBRIDGE       CLEAR     34  31  88 SE7       30.19R WCI  28
$$

SDZ012>016-024>037-041>051-057-063-072>074-221300-
SOUTHWEST AND SOUTH CENTRAL SOUTH DAKOTA

CITY           SKY/WX    TMP DP  RH WIND       PRES   REMARKS
RAPID CTY ARPT CLEAR     31  29  92 SE3       30.12R
PIERRE         CLEAR     32  31  96 CALM      30.21R
CUSTER         CLEAR     28  25  88 NW3       30.13R
ELLSWORTH AFB  CLEAR    N/A N/A N/A NW5       30.13R
PHILIP         CLEAR     36  35  96 VRB6      30.18R
PINE RIDGE     PTCLDY    37  35  92 S10       30.17R
SPEARFISH      FAIR      36  32  87 SW6       30.14S
WINNER         FAIR      37  32  82 W8        30.23R
$$

SDZ004>011-016>023-039-040-221300-
NORTHEAST SOUTH DAKOTA

CITY           SKY/WX    TMP DP  RH WIND       PRES   REMARKS
ABERDEEN       CLEAR     29  28  96 S6        30.27R WCI  23
WATERTOWN      CLOUDY    35  31  85 S5        30.28R
BROOKINGS      CLOUDY    37  33  85 E3        30.30R
SISSETON         N/A     32  30  92 CALM      30.29R
$$

SDZ017-020-022-023-036>040-048>070-221300-
SOUTHEAST SOUTH DAKOTA

CITY           SKY/WX    TMP DP  RH WIND       PRES   REMARKS
SIOUX FALLS    PTCLDY    32  29  88 NE6       30.29R WCI  26
HURON          CLOUDY    38  34  85 SE7       30.28
CHAMBERLAIN    PTCLDY    37  37 100 SE5       30.25R FOG
MITCHELL       CLOUDY    38  36  92 E5        30.29R
YANKTON        CLOUDY    37  34  89 CALM      30.27S
$$

ABBREVIATIONS USED IN REMARKS
   TC - TEMPERATURE IN CELSIUS
  WCI - WIND CHILL INDEX
   HX - HEAT INDEX
  VSB - VISIBILITY





USA.gov is the U.S. government's official web portal to all federal, state and local government web resources and services.